Location: Saratoga Springs
(43.0831°N, 73.7850°W)
Time: 07:48:20
(UTC-04:00)

Vanguard 2 Rocket - Pass Details

Date: 26 April 2024
Orbit: 556 x 3304 km, 32.9° (Epoch: 22 May)

Event Time Altitude Azimuth Distance (km) Brightness Sun altitude
Rises 01:31:35 0° 275° (W) 6,766 11.3 -32.5°
Reaches altitude 10° 01:36:01 10° 271° (W) 5,970 10.9 -32.4°
Maximum altitude 01:54:05 47° 206° (SSW) 3,953 9.5 -31.5°
Drops below altitude 10° 02:10:41 10° 140° (SE) 5,500 10.6 -30.5°
Sets 02:14:37 0° 134° (SE) 6,216 11.0 -30.2°
